Location: Unspecified
(0.0000°N, 0.0000°E)
Time: 16:01:01
(UTC+00:00)

deb r/b Ablestar - Visible Passes

Search period start: 15 June 2025 00:00
Search period end: 25 June 2025 00:00
Orbit: 915 x 1186 km, 66.9° (Epoch: 14 June)

Date Brightness Start Highest point End Pass type
(mag) Time Alt. Az. Time Alt. Az. Time Alt. Az.
15 Jun ? 05:05:41 10° SSW 05:13:11 87° ESE 05:20:26 10° NNE visible
15 Jun ? 18:28:52 10° W 18:31:21 13° WSW 18:33:53 10° SW visible
16 Jun ? 04:06:05 10° S 04:12:43 34° ESE 04:19:09 10° NE visible
17 Jun ? 03:09:32 10° SE 03:12:06 12° ESE 03:14:40 10° E visible
17 Jun ? 04:53:56 10° SSW 05:01:17 72° WNW 05:08:27 10° NNE visible
18 Jun ? 03:56:04 21° S 04:00:50 46° ESE 04:07:40 10° NE visible
19 Jun ? 02:58:10 15° SE 03:00:16 17° ESE 03:04:42 10° ENE visible
19 Jun ? 04:44:29 22° SW 04:49:21 54° WNW 04:56:20 10° N visible
20 Jun ? 03:46:33 42° SSE 03:48:55 61° ESE 03:56:00 10° NNE visible
20 Jun ? 05:34:05 10° WSW 05:37:52 15° WNW 05:41:34 10° NW visible
21 Jun ? 02:48:33 23° ESE 02:48:33 23° ESE 02:53:54 10° ENE visible
21 Jun ? 04:34:51 31° WSW 04:37:25 41° WNW 04:44:03 10° N visible
22 Jun ? 03:36:47 79° SE 03:37:01 80° ESE 03:44:12 10° NNE visible
23 Jun ? 02:38:40 26° E 02:38:40 26° E 02:42:43 10° NE visible
23 Jun ? 04:24:57 30° W 04:25:29 31° WNW 04:31:37 10° NNW visible
24 Jun ? 03:26:46 56° N 03:26:46 56° N 03:32:15 10° NNE visible
